Flag for U.S.A. Weather past 2 weeks in State College, Pennsylvania, U.S.A.

Now
27 °F

Light snow. Overcast.


Feels Like: 27 °F
Forecast: 18 / 32 °F
Wind: No wind

Location: University Park Airport

Current Time: Feb 1, 2015 at 10:34:10 AM

Latest Report: Feb 1, 2015 at 9:53 AM


Visibility: 3 mi

Pressure: 30.17 "Hg

Humidity: 74%

Dew point: 19 °F

Location of State CollegeLocation

Historic Weather in State College — Graph

°F

State College temperature yesterday

Maximum temperature yesterday: 23 °F (at 3:53 PM)
Minimum temperature yesterday: 8 °F (at 1:15 AM)
Average temperature yesterday: 14 °F

Past Weeks' High & Low Weather Summary

 TemperatureHumidityPressure
High36 °F (Jan 18, 10:53 AM)100% (Jan 22, 7:53 AM)30.36 "Hg (Jan 22, 7:53 AM)
Low5 °F (Jan 29, 5:53 AM)34% (Jan 28, 3:53 PM)29.44 "Hg (Jan 24, 1:53 PM)
Average25 °F79%29.98 "Hg
* Reported Jan 17 8:53 AM — Feb 1 8:53 AM, State College, Weather by CustomWeather, © 2014

Note: Actual official high and low records may vary slightly from our data, if they occured in-between our weather recording intervals... More about our weather records

Advertising

State College weather history for previous 24 hours

 ConditionsComfort  
Time TempWeatherWind HumidityBarometerVisibility
8:53 AM
Feb 1
27 °FLight snow. Overcast.No wind74%30.17 "Hg5 mi
8:10 AM27 °FLight snow. Overcast.No wind64%30.17 "Hg3 mi
7:53 AM25 °FOvercast.No wind74%30.17 "Hg6 mi
6:53 AM25 °FOvercast.No wind69%30.17 "Hg10 mi
5:53 AM25 °FCold.No wind69%30.16 "Hg10 mi
5:35 AM25 °FOvercast.No wind69%30.17 "Hg10 mi
5:15 AM24 °FOvercast.No wind71%30.17 "Hg10 mi
4:55 AM26 °FOvercast.3 mph69%30.17 "Hg10 mi
4:35 AM26 °FOvercast.5 mph69%30.17 "Hg10 mi
4:15 AM26 °FOvercast.5 mph68%30.17 "Hg10 mi
3:55 AM25 °FOvercast.8 mph70%30.17 "Hg10 mi
3:35 AM25 °FOvercast.7 mph71%30.17 "Hg10 mi
3:15 AM24 °FOvercast.6 mph70%30.17 "Hg10 mi
2:55 AM23 °FOvercast.3 mph70%30.17 "Hg10 mi
2:35 AM23 °FOvercast.No wind69%30.17 "Hg10 mi
2:15 AM22 °FOvercast.No wind70%30.18 "Hg10 mi
1:55 AM22 °FOvercast.No wind71%30.18 "Hg10 mi
1:35 AM21 °FOvercast.No wind71%30.18 "Hg10 mi
1:15 AM21 °FOvercast.No wind73%30.18 "Hg10 mi
12:55 AM19 °FOvercast.No wind75%30.18 "Hg10 mi
12:35 AM19 °FOvercast.3 mph73%30.18 "Hg10 mi
12:15 AM18 °FOvercast.3 mph74%30.18 "Hg10 mi
11:55 PM
Jan 31
17 °FPassing clouds.3 mph75%30.18 "Hg10 mi
11:35 PM19 °FClear.7 mph73%30.18 "Hg10 mi
11:15 PM18 °FClear.6 mph72%30.18 "Hg10 mi
10:55 PM20 °FClear.8 mph70%30.18 "Hg10 mi
10:15 PM20 °FClear.9 mph68%30.18 "Hg10 mi
9:55 PM20 °FClear.7 mph68%30.19 "Hg10 mi
8:53 PM19 °FClear.7 mph68%30.20 "Hg10 mi
7:53 PM19 °FClear.9 mph63%30.21 "Hg10 mi
6:53 PM19 °FClear.6 mph63%30.21 "Hg10 mi
5:53 PM21 °FClear.12 mph58%30.20 "Hg10 mi
4:53 PM23 °FSunny.12 mph54%30.17 "Hg10 mi
3:53 PM23 °FSunny.8 mph54%30.19 "Hg10 mi
2:53 PM21 °FSunny.13 mph54%30.20 "Hg10 mi
1:53 PM21 °FPassing clouds.7 mph54%30.20 "Hg10 mi
12:53 PM19 °FPassing clouds.9 mph58%30.22 "Hg10 mi
11:53 AM18 °FScattered clouds.14 mph58%30.26 "Hg10 mi
10:53 AM16 °FScattered clouds.17 mph62%30.29 "Hg10 mi
Weather by CustomWeather, © 2014

See weather overviewHow to use our weather pages